WetterOnline ( http://www.wetteronline.de )

Wetter aktuell Offenburg

Aktuelles Wetter: Lahr (156m)

6-stündlich | Neueste Meldungen
Ortszeit Temperatur Wetter
Sa, 19.01. 13:00 -0.9° C wolkenlos
Sa, 19.01. 7:00 -2.5° C fast wolkenlos
Sa, 19.01. 1:00 -2.1° C leicht bewölkt
Fr, 18.01. 19:00 0.2° C bedeckt
Fr, 18.01. 13:00 2.6° C bewölkt
Fr, 18.01. 7:00 1.0° C bedeckt
Fr, 18.01. 1:00 0.4° C bewölkt
Do, 17.01. 19:00 4.9° C leichter Regen
Ortszeit Temperatur Wetter
Sa, 19.01. 13:00 -0.9° C wolkenlos
Sa, 19.01. 12:50 -0.9° C wolkenlos
Sa, 19.01. 12:40 -1.5° C fast wolkenlos
Sa, 19.01. 12:30 -1.7° C wolkig
Sa, 19.01. 12:20 -1.7° C bedeckt
Sa, 19.01. 12:10 -2.0° C bewölkt
Sa, 19.01. 12:00 -2.2° C bedeckt
Sa, 19.01. 11:30 -3.3° C bedeckt
Sa, 19.01. 11:00 -3.3° C bewölkt
Sa, 19.01. 10:30 -3.2° C leicht bewölkt
Sa, 19.01. 10:00 -3.0° C wolkenlos
Ortszeit Relative Feuchte Sichtweite
Sa, 19.01. 13:00 92% 4.3 km
Sa, 19.01. 7:00 87% 14 km
Sa, 19.01. 1:00 85% 17 km
Fr, 18.01. 19:00 84% 30 km
Fr, 18.01. 13:00 71% 30 km
Fr, 18.01. 7:00 82% 35 km
Fr, 18.01. 1:00 96% 17 km
Do, 17.01. 19:00 82% 14 km
Ortszeit Relative Feuchte Sichtweite
Sa, 19.01. 13:00 92% 4.3 km
Sa, 19.01. 12:50 92% -
Sa, 19.01. 12:40 92% -
Sa, 19.01. 12:30 94% 3.2 km
Sa, 19.01. 12:20 94% -
Sa, 19.01. 12:10 93% -
Sa, 19.01. 12:00 96% 2.0 km
Sa, 19.01. 11:30 98% 1.6 km
Sa, 19.01. 11:00 96% 1.1 km
Sa, 19.01. 10:30 95% 2.3 km
Sa, 19.01. 10:00 90% 7 km
Ortszeit Niederschlagsmenge Niederschlagsart
Sa, 19.01. 13:00 0.0 l/m2 in 6 Std. -
Sa, 19.01. 7:00 0.0 l/m2 in 12 Std. -
Sa, 19.01. 1:00 0.0 l/m2 in 6 Std. -
Fr, 18.01. 19:00 0.1 l/m2 in 12 Std. -
Fr, 18.01. 13:00 0.1 l/m2 in 6 Std. Schnee, Sprühregen
Fr, 18.01. 7:00 3 l/m2 in 12 Std. -
Fr, 18.01. 1:00 3 l/m2 in 6 Std. Schnee, Regen
Do, 17.01. 19:00 0.3 l/m2 in 12 Std. Regen
Ortszeit Niederschlagsmenge Niederschlagsart
Sa, 19.01. 13:00 0.0 l/m2 in 1 Std. -
Sa, 19.01. 12:50 keine Meldung -
Sa, 19.01. 12:40 keine Meldung -
Sa, 19.01. 12:30 0.0 l/m2 in 1 Std. -
Sa, 19.01. 12:20 keine Meldung -
Sa, 19.01. 12:10 keine Meldung -
Sa, 19.01. 12:00 0.0 l/m2 in 1 Std. -
Sa, 19.01. 11:30 0.0 l/m2 in 1 Std. -
Sa, 19.01. 11:00 0.0 l/m2 in 1 Std. -
Sa, 19.01. 10:30 0.0 l/m2 in 1 Std. -
Sa, 19.01. 10:00 0.0 l/m2 in 1 Std. -
Ortszeit Stärke Spitze Richtung
km/h Bft. km/h Grad Sektor
Sa, 19.01. 13:00 6 1 9 50° NO
Sa, 19.01. 7:00 6 1 9 50° NO
Sa, 19.01. 1:00 6 1 17 290° W
Fr, 18.01. 19:00 7 2 17 60° NO
Fr, 18.01. 13:00 4 1 14 140° SO
Fr, 18.01. 7:00 7 2 14 200° S
Fr, 18.01. 1:00 7 2 40 180° S
Do, 17.01. 19:00 31 5 56 280° W
Ortszeit Stärke Spitze Richtung
km/h Bft. km/h Grad Sektor
Sa, 19.01. 13:00 6 1 7 50° NO
Sa, 19.01. 12:50 6 1 - 50° NO
Sa, 19.01. 12:40 6 1 - 50° NO
Sa, 19.01. 12:30 6 1 7 50° NO
Sa, 19.01. 12:20 6 1 - 50° NO
Sa, 19.01. 12:10 6 1 - 20° N
Sa, 19.01. 12:00 4 1 11 300° NW
Sa, 19.01. 11:30 4 1 11 290° W
Sa, 19.01. 11:00 7 2 11 280° W
Sa, 19.01. 10:30 6 1 9 240° SW
Sa, 19.01. 10:00 4 1 7 220° SW
Ortszeit Untergrenze Bedeckung Gattung
total tief tief mittel hoch
Sa, 19.01. 13:00 - 0/8 0/8 - - -
Sa, 19.01. 7:00 5100 m 1/8 1/8 - - -
Sa, 19.01. 1:00 5400 m 3/8 3/8 - - -
Fr, 18.01. 19:00 4800 m 8/8 8/8 - - -
Fr, 18.01. 13:00 600 m 7/8 7/8 - - -
Fr, 18.01. 7:00 1320 m 8/8 8/8 - - -
Fr, 18.01. 1:00 1050 m 8/8 6/8 - - -
Do, 17.01. 19:00 570 m 8/8 8/8 - - -
Ortszeit Bedeckungsgrad in Achtel und Wolkenuntergrenze
Sa, 19.01. 13:00 keine Wolken
Sa, 19.01. 12:50 keine Wolken
Sa, 19.01. 12:40 1(60m)
Sa, 19.01. 12:30 3(60m) 9 9
Sa, 19.01. 12:20 9 9 9
Sa, 19.01. 12:10 7(60m)
Sa, 19.01. 12:00 8(30m)
Sa, 19.01. 11:30 8(30m)
Sa, 19.01. 11:00 6(30m) 7(1110m)
Sa, 19.01. 10:30 2(30m) 5(1110m)
Sa, 19.01. 10:00 keine Wolken
Ortszeit Luftdruck NN (hPa) Tendenz (hPa in 3 Std.)
Sa, 19.01. 13:00 1017 - 1,0
Sa, 19.01. 7:00 1018 - 0,6
Sa, 19.01. 1:00 1020 0,0
Fr, 18.01. 19:00 1020 - 0,8
Fr, 18.01. 13:00 1021 - 0,3
Fr, 18.01. 7:00 1020 + 1,1
Fr, 18.01. 1:00 1018 + 1,9
Do, 17.01. 19:00 1013 + 2,8
Ortszeit Luftdruck NN (hPa) Tendenz (hPa in 3 Std.)
Sa, 19.01. 13:00 1017 - 1,0
Sa, 19.01. 12:50 1017 keine Meldung
Sa, 19.01. 12:40 1017 keine Meldung
Sa, 19.01. 12:30 1017 - 0,7
Sa, 19.01. 12:20 1017 keine Meldung
Sa, 19.01. 12:10 1018 keine Meldung
Sa, 19.01. 12:00 1018 - 0,2
Sa, 19.01. 11:30 1018 + 0,2
Sa, 19.01. 11:00 1018 + 0,2
Sa, 19.01. 10:30 1018 + 0,2
Sa, 19.01. 10:00 1018 + 0,1
Ortszeit Schneehöhe (cm)
Sa, 19.01. 13:00 0
Sa, 19.01. 7:00 0
Sa, 19.01. 1:00 0
Fr, 18.01. 19:00 0
Fr, 18.01. 13:00 0
Fr, 18.01. 7:00 0
Fr, 18.01. 1:00 0
Do, 17.01. 19:00 0
Ortszeit Schneehöhe (cm)
Sa, 19.01. 13:00 0
Sa, 19.01. 12:50 0
Sa, 19.01. 12:40 0
Sa, 19.01. 12:30 0
Sa, 19.01. 12:20 0
Sa, 19.01. 12:10 0
Sa, 19.01. 12:00 0
Sa, 19.01. 11:30 0
Sa, 19.01. 11:00 0
Sa, 19.01. 10:30 0
Sa, 19.01. 10:00 0
Link zu dieser Seite / Seite empfehlen

Das Wetter in ...